Wind_Speed
3 3 3 2 2 3 5 7 8 9 9 9 8 8 8 7 7 7 7 7 7 7 6 6 6 5 4 4 4 4 4 4 5 5 5 5 6 6 6 6 6 6 7
5 5 4 3 2 2 4 5 6 7 8 8 7 7 7 6 6 6 6 6 6 6 6 6 6 5 5 4 4 4 4 4 4 5 5 5 6 6 6 6 6 6 7
6 6 6 4 3 3 3 4 5 6 6 6 6 6 6 6 5 5 6 6 6 6 6 6 5 6 6 5 4 4 4 4 4 5 5 5 5 6 6 6 6 6 6
7 7 8 6 4 4 3 4 4 5 5 5 5 5 5 5 5 5 6 6 6 6 6 6 5 5 5 5 4 4 4 4 4 4 4 4 5 5 5 5 5 6 6
7 7 8 7 5 4 4 3 3 4 3 3 3 4 4 4 4 5 5 6 6 6 6 6 5 5 5 4 4 3 3 3 3 3 3 4 4 4 4 5 5 5 6
6 7 8 7 6 5 4 3 3 3 2 2 2 2 2 3 3 4 5 5 6 6 6 5 5 4 4 4 3 2 2 2 1 2 2 3 4 3 3 4 4 4 5
7 9 8 8 8 7 5 4 3 3 2 2 2 1 2 2 3 3 4 5 5 6 6 6 5 4 4 3 2 2 1 1 0 1 2 3 3 3 3 3 3 4 4
9 10 9 9 8 7 6 5 4 3 3 2 1 0 1 2 3 4 4 5 5 6 7 6 5 5 4 3 2 2 1 1 1 1 2 3 3 3 2 3 3 3 4
11 10 11 10 9 8 7 5 4 4 4 3 2 1 2 3 4 4 5 6 6 7 7 7 6 5 5 4 3 3 2 2 3 2 2 2 2 3 3 3 3 3 4
10 11 11 11 11 10 8 7 6 5 5 4 3 3 2 3 4 5 6 7 7 8 8 7 6 5 5 4 4 4 3 3 3 3 3 3 3 3 3 4 4 4 4
11 11 12 12 12 11 10 9 7 6 6 5 5 4 4 4 5 6 7 7 8 8 8 8 7 6 6 5 5 5 4 4 4 4 4 4 4 4 4 4 5 5 5
11 12 12 13 13 12 11 10 9 8 7 7 7 7 6 6 6 7 7 7 8 8 8 8 7 7 6 6 6 5 5 5 5 5 5 6 6 6 6 6 7 7 7
12 13 14 13 13 13 12 11 10 9 9 9 8 8 7 7 7 8 8 8 9 9 9 8 7 7 7 7 6 6 5 6 6 6 7 7 7 8 8 8 8 9 8
13 14 15 14 15 14 14 13 12 11 11 11 10 9 8 9 8 8 8 9 10 10 9 8 7 7 7 7 7 6 6 6 6 6 7 8 8 9 9 9 10 10 10
15 15 15 15 16 16 15 14 14 12 12 12 11 10 10 10 9 9 9 10 10 9 7 7 7 6 7 7 7 7 6 6 6 7 7 8 9 9 10 10 10 11 12
15 16 16 16 17 16 17 16 15 14 13 12 12 11 10 10 10 9 9 9 9 8 7 7 6 6 5 6 7 7 7 7 6 6 7 8 9 9 10 11 11 12 12
14 16 17 18 18 18 17 16 15 14 13 13 12 11 10 10 10 9 8 8 7 7 7 7 6 5 5 5 5 6 6 7 7 7 7 8 9 10 10 11 12 13 13
14 16 17 18 19 18 17 17 16 14 13 13 12 11 10 10 9 8 7 6 5 5 5 5 5 4 4 4 4 4 5 5 6 6 7 7 8 9 10 11 12 12 13
14 15 17 17 18 18 16 17 17 15 14 13 13 12 11 9 8 7 6 5 4 4 4 4 3 3 3 3 3 3 4 5 5 5 6 7 8 9 10 11 11 12 12
13 15 17 18 18 17 17 17 16 15 14 14 13 12 11 10 9 7 6 5 4 3 2 2 2 2 2 2 2 2 3 4 4 5 6 7 7 8 9 10 11 11 12
11 13 15 17 18 18 17 16 16 15 14 14 13 12 11 10 8 7 6 5 4 3 2 2 2 2 1 2 2 2 3 3 4 4 5 6 7 8 8 9 10 10 11
11 12 14 15 17 18 18 17 16 15 15 13 13 12 11 10 8 7 6 5 4 3 2 2 2 1 1 2 2 2 2 3 4 5 5 5 6 6 7 7 9 10 11
11 13 14 15 16 18 17 17 17 16 14 13 12 12 11 10 9 8 7 5 4 3 2 1 1 1 2 2 3 3 3 3 4 5 5 6 6 6 6 7 8 9 11
10 11 12 15 15 16 16 17 17 15 15 13 13 11 11 11 10 8 7 6 4 3 2 1 1 1 2 3 3 3 4 4 4 5 5 6 6 7 7 8 9 10 11
9 10 12 14 15 16 16 17 17 16 16 15 14 12 12 11 10 9 7 6 5 4 3 1 1 1 2 3 3 4 4 5 5 6 6 7 7 8 9 9 10 10 11
10 11 12 13 14 15 16 17 16 16 17 16 14 13 13 12 11 9 8 7 5 4 3 2 2 2 2 3 3 4 5 5 6 6 7 8 8 9 9 10 10 11 12
Wind_Direction
275 256 246 231 166 123 104 96 91 85 80 75 70 66 66 63 57 53 53 54 54 53 53 52 50 54 61 69 66 68 82 88 90 94 95 96 102 104 106 104 104 104 107
277 255 239 232 192 142 113 101 96 92 85 78 72 69 67 64 58 50 47 48 48 47 47 46 45 46 50 57 59 62 77 90 94 97 99 101 105 108 108 107 107 109 110
270 248 236 227 205 167 133 112 103 99 88 80 72 68 65 62 54 45 40 38 38 39 41 42 44 46 47 50 51 58 74 84 90 97 100 100 106 109 112 113 114 115 112
263 249 234 222 206 183 157 133 113 107 96 84 76 68 62 60 53 43 35 32 30 33 34 34 34 37 41 42 42 54 72 83 86 98 97 99 107 113 116 114 112 111 110
260 244 231 221 209 195 174 154 133 116 103 91 84 74 62 54 45 34 28 24 20 21 23 23 25 27 30 32 36 44 58 80 92 105 102 107 115 119 122 117 112 110 110
250 235 223 215 211 202 189 176 156 135 117 105 92 77 59 41 28 21 18 14 9 9 9 8 10 13 13 14 21 26 30 52 87 116 127 125 124 125 126 123 121 119 118
242 228 220 215 212 208 199 190 180 162 146 132 107 82 40 15 4 2 2 358 357 358 358 354 353 355 357 356 357 359 344 331 237 159 165 150 141 142 142 140 135 133 131
239 228 222 216 213 213 209 201 196 189 183 175 158 102 345 334 330 336 342 340 337 341 342 340 341 339 341 342 334 319 303 279 258 217 196 192 187 178 172 172 163 152 147
236 228 225 219 214 213 214 209 200 199 196 203 220 252 294 309 312 319 324 324 321 321 325 325 328 329 328 324 313 298 294 290 271 254 224 213 200 199 201 200 193 176 169
237 226 223 221 216 214 214 215 212 208 205 210 228 249 270 291 300 309 314 314 313 314 316 315 313 314 313 309 300 285 286 282 277 255 234 230 221 214 213 213 208 196 192
241 230 227 222 222 222 216 216 219 217 214 217 230 241 257 275 289 300 309 310 310 310 310 309 305 302 302 296 292 282 277 271 263 248 238 229 225 221 220 227 222 215 210
237 230 227 226 223 219 216 219 222 224 224 226 232 240 252 266 281 293 303 306 308 307 304 302 298 294 291 289 288 282 276 270 262 256 242 238 237 230 230 231 232 227 223
233 227 222 222 221 218 218 218 222 228 228 229 235 243 252 263 273 286 295 299 302 304 302 297 293 287 284 284 280 274 271 268 261 260 251 247 244 241 238 234 232 227 228
230 224 218 218 218 219 218 218 225 231 232 234 238 243 250 259 267 278 290 298 301 305 302 297 293 289 283 277 274 267 266 263 263 254 248 247 247 246 243 239 234 227 228
228 226 221 220 221 221 219 223 227 229 235 238 237 243 250 256 263 275 289 297 299 301 302 301 299 292 282 274 267 261 261 260 266 259 253 252 252 249 246 242 238 232 231
226 223 222 222 221 221 220 222 223 225 232 238 238 243 250 253 260 271 283 292 294 295 300 302 301 295 285 272 264 261 258 258 267 266 261 257 254 253 252 247 246 244 241
227 223 221 221 220 217 217 219 221 222 227 232 235 239 244 246 255 265 281 287 289 292 296 296 295 294 289 281 270 261 256 259 266 267 265 259 255 254 256 253 252 248 245
227 221 218 218 217 216 215 217 221 222 223 228 230 234 239 243 250 262 276 279 283 288 294 295 294 297 287 285 281 273 262 262 268 270 267 261 258 258 258 257 255 251 248
229 218 212 212 212 214 215 216 218 220 220 224 227 230 232 237 244 256 263 267 274 286 295 296 293 309 305 297 289 279 269 271 270 273 269 268 264 262 261 260 259 256 254
226 215 210 211 208 212 214 214 215 215 217 218 221 225 229 234 238 243 247 254 259 266 285 295 293 303 319 323 315 300 288 285 283 280 278 276 275 270 264 263 262 262 259
217 209 207 209 210 211 210 210 211 212 213 213 215 217 220 224 225 227 231 233 232 241 259 267 278 288 309 325 327 323 309 299 294 291 291 285 282 275 270 270 268 265 263
214 208 205 204 205 205 206 206 208 208 205 209 212 213 214 211 213 215 215 214 215 226 232 246 269 288 314 325 324 324 321 309 302 301 302 301 296 289 282 277 274 272 270
215 208 206 205 205 203 205 205 206 204 204 207 210 211 210 208 207 207 207 204 200 203 211 224 252 332 339 339 336 333 331 326 316 312 311 311 307 304 299 293 290 287 280
210 206 202 204 202 199 202 201 202 202 204 205 206 207 205 204 204 205 205 199 199 206 205 204 230 319 334 337 340 340 337 331 325 323 321 319 314 310 306 301 297 293 291
210 208 205 205 204 202 199 199 202 203 203 202 202 204 201 201 202 200 196 198 203 204 200 210 251 301 324 329 333 337 338 336 332 327 322 320 317 315 313 311 306 300 297
207 206 203 203 207 200 198 201 204 205 204 202 202 202 198 198 197 196 197 204 206 205 210 226 253 282 301 310 320 328 331 331 330 327 324 321 318 317 315 312 309 305 301
Height
5876 5876 5877 5878 5878 5878 5878 5878 5879 5880 5881 5882 5883 5883 5884 5885 5885 5885 5886 5886 5886 5886 5886 5886 5886 5886 5886 5886 5886 5886 5887 5887 5887 5888 5888 5888 5888 5889 5889 5889 5890 5890 5890
5875 5876 5877 5877 5878 5878 5878 5879 5879 5880 5881 5882 5883 5884 5885 5885 5886 5886 5887 5887 5887 5887 5887 5887 5887 5887 5887 5887 5887 5887 5887 5888 5888 5888 5889 5889 5890 5890 5890 5890 5891 5891 5891
5874 5875 5876 5877 5877 5878 5878 5879 5879 5880 5881 5882 5884 5884 5885 5886 5886 5887 5887 5888 5888 5888 5888 5887 5887 5887 5887 5887 5887 5888 5888 5888 5889 5889 5890 5890 5891 5891 5891 5892 5892 5892 5892
5873 5874 5875 5876 5877 5877 5878 5879 5879 5880 5881 5882 5883 5885 5885 5886 5887 5887 5888 5888 5888 5888 5888 5888 5888 5888 5888 5888 5888 5888 5889 5889 5889 5890 5890 5891 5891 5892 5892 5892 5893 5893 5893
5871 5872 5874 5875 5876 5877 5877 5878 5879 5880 5881 5882 5883 5884 5885 5886 5887 5887 5888 5888 5888 5889 5889 5888 5889 5889 5889 5889 5889 5889 5889 5889 5890 5890 5891 5891 5892 5892 5893 5893 5893 5893 5894
5870 5871 5872 5873 5875 5876 5877 5878 5879 5880 5881 5882 5883 5884 5885 5886 5887 5887 5888 5888 5888 5889 5889 5889 5889 5889 5889 5889 5889 5889 5889 5889 5890 5890 5891 5891 5892 5893 5893 5894 5894 5894 5894
5869 5870 5871 5872 5874 5875 5876 5877 5878 5880 5881 5882 5883 5884 5885 5886 5886 5887 5887 5887 5888 5888 5888 5889 5889 5889 5889 5889 5889 5889 5889 5890 5890 5890 5891 5891 5892 5893 5893 5894 5894 5895 5895
5867 5868 5870 5871 5873 5874 5875 5876 5878 5879 5880 5881 5882 5883 5884 5885 5886 5886 5887 5887 5887 5887 5887 5888 5888 5888 5889 5888 5888 5889 5889 5889 5890 5890 5891 5891 5892 5892 5893 5894 5894 5895 5895
5866 5867 5868 5870 5871 5873 5874 5875 5877 5878 5879 5881 5882 5882 5883 5884 5885 5885 5886 5886 5886 5886 5887 5887 5887 5888 5888 5888 5888 5888 5888 5888 5889 5890 5890 5891 5891 5892 5893 5893 5894 5895 5896
5864 5865 5866 5868 5870 5871 5873 5874 5876 5877 5878 5880 5881 5882 5882 5883 5884 5884 5885 5885 5885 5885 5885 5886 5886 5887 5887 5887 5887 5887 5887 5888 5888 5889 5890 5890 5891 5891 5892 5893 5894 5895 5896
5861 5863 5864 5866 5868 5870 5871 5873 5874 5876 5877 5878 5880 5881 5881 5882 5883 5883 5883 5884 5884 5884 5884 5884 5885 5885 5886 5886 5886 5886 5886 5887 5887 5888 5889 5889 5890 5891 5891 5892 5893 5894 5895
5859 5860 5862 5864 5866 5868 5869 5871 5873 5874 5876 5877 5878 5879 5880 5881 5881 5882 5882 5882 5882 5882 5883 5883 5883 5884 5884 5885 5885 5885 5885 5886 5886 5887 5887 5888 5889 5890 5890 5891 5892 5893 5894
5856 5858 5860 5862 5864 5865 5867 5869 5871 5873 5874 5875 5877 5878 5879 5879 5880 5881 5881 5881 5881 5881 5881 5882 5882 5882 5883 5883 5883 5884 5884 5884 5885 5885 5886 5887 5888 5889 5889 5890 5891 5892 5893
5852 5855 5857 5859 5861 5863 5865 5867 5869 5871 5872 5873 5875 5876 5877 5878 5879 5879 5879 5880 5879 5879 5880 5880 5881 5881 5881 5882 5882 5882 5883 5883 5883 5884 5884 5885 5886 5887 5887 5888 5889 5890 5891
5849 5852 5854 5857 5858 5860 5862 5864 5867 5868 5870 5871 5873 5874 5875 5876 5877 5878 5878 5878 5878 5878 5878 5879 5879 5879 5880 5880 5880 5881 5881 5881 5882 5882 5883 5884 5884 5885 5885 5886 5887 5888 5889
5845 5848 5851 5853 5855 5857 5859 5862 5864 5866 5868 5869 5871 5872 5873 5875 5876 5876 5877 5876 5876 5877 5877 5877 5878 5878 5878 5878 5878 5879 5879 5880 5880 5881 5881 5882 5882 5883 5884 5884 5885 5886 5886
5841 5844 5847 5849 5852 5854 5856 5859 5861 5863 5865 5867 5869 5870 5871 5873 5874 5874 5875 5875 5875 5875 5876 5876 5877 5877 5877 5877 5877 5877 5878 5878 5878 5879 5879 5880 5880 5881 5881 5882 5882 5883 5884
5837 5839 5842 5845 5848 5851 5853 5856 5859 5861 5863 5865 5867 5868 5870 5871 5872 5873 5873 5874 5874 5874 5875 5875 5875 5875 5876 5876 5876 5876 5876 5877 5877 5877 5877 5878 5878 5879 5879 5880 5880 5881 5881
5834 5836 5839 5841 5844 5847 5850 5853 5856 5858 5860 5863 5865 5867 5868 5869 5870 5871 5872 5872 5873 5873 5874 5874 5874 5874 5875 5875 5875 5875 5875 5875 5876 5876 5876 5876 5876 5877 5877 5877 5878 5878 5879
5830 5832 5835 5838 5841 5845 5847 5850 5853 5856 5858 5861 5863 5865 5866 5868 5869 5870 5871 5871 5872 5873 5873 5873 5874 5874 5874 5874 5874 5874 5874 5874 5874 5874 5874 5874 5875 5875 5875 5875 5875 5876 5876
5828 5830 5832 5835 5839 5842 5845 5848 5851 5854 5857 5859 5861 5863 5864 5866 5867 5869 5870 5870 5871 5872 5872 5873 5873 5873 5873 5873 5874 5873 5873 5873 5873 5873 5873 5873 5873 5873 5873 5873 5873 5873 5874
5826 5828 5831 5833 5837 5840 5844 5847 5849 5852 5854 5857 5859 5861 5863 5865 5866 5867 5869 5870 5870 5871 5872 5872 5873 5873 5873 5873 5873 5873 5873 5873 5872 5872 5872 5872 5871 5871 5871 5871 5871 5871 5871
5825 5827 5829 5832 5835 5838 5841 5844 5847 5850 5852 5855 5858 5860 5862 5863 5865 5866 5868 5869 5870 5871 5871 5872 5872 5872 5872 5873 5872 5873 5872 5872 5872 5872 5871 5871 5870 5870 5869 5869 5869 5869 5868
5823 5825 5827 5830 5833 5836 5839 5842 5845 5848 5851 5854 5856 5858 5860 5862 5864 5865 5867 5868 5869 5870 5871 5871 5872 5872 5872 5872 5872 5872 5872 5871 5871 5871 5870 5870 5869 5869 5868 5867 5867 5867 5866
5822 5824 5826 5828 5831 5834 5836 5840 5843 5846 5849 5852 5854 5857 5859 5861 5863 5864 5866 5867 5869 5869 5870 5871 5871 5871 5872 5872 5871 5871 5871 5870 5870 5870 5869 5869 5868 5867 5866 5866 5865 5864 5864
5821 5823 5825 5827 5829 5832 5835 5838 5842 5844 5847 5850 5853 5855 5858 5860 5862 5864 5865 5867 5868 5869 5869 5870 5871 5871 5871 5871 5871 5871 5870 5870 5869 5869 5868 5867 5866 5866 5865 5864 5863 5862 5861